This is the latest recevied weather packets stored in our database for station/object OK3MS-5. If no packets are shown the sender has not sent any weather packets the latest 10 day(s).
| Time | Temp. | Humidity | Pressure | Rain* | Wind** | Luminosity | Snow |
|---|---|---|---|---|---|---|---|
| 1776983407 | 5° C | 68% | 1021 hPa | 0 mm | - | 0 W/m² | - |
| 1776983103 | 5° C | 62% | 1021 hPa | 0 mm | - | 0 W/m² | - |
| 1776982811 | 5° C | 63% | 1020.9 hPa | 0 mm | - | 0 W/m² | - |
| 1776982502 | 5.56° C | 61% | 1020.8 hPa | 0 mm | - | 0 W/m² | - |
| 1776982211 | 5.56° C | 59% | 1020.7 hPa | 0 mm | - | 0 W/m² | - |
| 1776981903 | 5.56° C | 60% | 1020.7 hPa | 0 mm | - | 0 W/m² | - |
| 1776981603 | 6.11° C | 60% | 1020.6 hPa | 0 mm | - | 0 W/m² | - |
| 1776981303 | 6.11° C | 56% | 1020.6 hPa | 0 mm | - | 0 W/m² | - |
| 1776981009 | 6.67° C | 54% | 1020.5 hPa | 0 mm | - | 0 W/m² | - |
| 1776980702 | 6.67° C | 53% | 1020.4 hPa | 0 mm | - | 0 W/m² | - |
| 1776980410 | 6.67° C | 53% | 1020.4 hPa | 0 mm | - | 0 W/m² | - |
| 1776980103 | 6.67° C | 52% | 1020.4 hPa | 0 mm | - | 0 W/m² | - |
| 1776979504 | 6.67° C | 54% | 1020.5 hPa | 0 mm | - | 0 W/m² | - |
| 1776979208 | 6.67° C | 56% | 1020.3 hPa | 0 mm | - | 0 W/m² | - |
| 1776978902 | 7.78° C | 50% | 1020.2 hPa | 0 mm | - | 0 W/m² | - |
| 1776978609 | 7.78° C | 50% | 1020.1 hPa | 0 mm | - | 0 W/m² | - |
| 1776978302 | 7.78° C | 50% | 1020.1 hPa | 0 mm | - | 0 W/m² | - |
| 1776978008 | 7.78° C | 49% | 1020 hPa | 0 mm | - | 0 W/m² | - |
| 1776977702 | 8.33° C | 49% | 1019.9 hPa | 0 mm | - | 0 W/m² | - |
| 1776977411 | 8.89° C | 47% | 1019.7 hPa | 0 mm | - | 0 W/m² | - |
| 1776977103 | 9.44° C | 45% | 1019.6 hPa | 0 mm | - | 0 W/m² | - |
| 1776976809 | 9.44° C | 42% | 1019.6 hPa | 0 mm | - | 0 W/m² | - |
| 1776976504 | 9.44° C | 44% | 1019.6 hPa | 0 mm | - | 0 W/m² | - |
| 1776976209 | 9.44° C | 43% | 1019.6 hPa | 0 mm | - | 0 W/m² | - |
| 1776975905 | 9.44° C | 42% | 1019.4 hPa | 0 mm | - | 0 W/m² | - |
* Rain latest hour (hover to see other rain measurements)
** Current wind speed in m/s (hover to see current wind gust speed)